Muscatine, IA

11:57 AM CDT on May 26, 2018 (GMT -0500)
Muscatine Municipal

Weather History for KMUT - October, 2012

Change the Weather History Date:

Sunday, October 14, 2012

  Actual Average Record
Temperature  
Mean Temperature 56 °F -  
Max Temperature 66 °F 68 °F 85 °F (1962)
Min Temperature 44 °F 44 °F 26 °F (1979)
Degree Days  
Heating Degree Days 9    
Growing Degree Days 6 (Base 50)    
Moisture  
Dew Point 52 °F    
Average Humidity 82    
Maximum Humidity 88    
Minimum Humidity 76    
Precipitation  
Precipitation 0.74 in - - ()
Sea Level Pressure  
Sea Level Pressure 29.66 in    
Wind  
Wind Speed 9 mph (WSW)    
Max Wind Speed 32 mph    
Max Gust Speed 43 mph    
Visibility 9 miles    
Events Rain    
Averages and records for this station are not official NWS values.
T = Trace of Precipitation, MM = Missing Value Source: NWS Daily Summary

Daily Weather History Graph

Daily Weather History Graph

Search for Another Location

Airport or City:

Astronomy

Oct. 14, 2012 Rise Set
Actual Time 7:15 AM CDT 6:24 PM CDT
Civil Twilight 6:48 AM CDT 6:52 PM CDT
Nautical Twilight 6:15 AM CDT 7:24 PM CDT
Astronomical Twilight 5:43 AM CDT 7:56 PM CDT
Moon 6:15 AM CDT (10/14) 5:44 PM CDT (10/14)
Length of Visible Light 12h 04m
Length of Day
11h 08m
Waning Crescent, 1% of the Moon is Illuminated
Oct 14
Waning Crescent
Oct 15
New
Oct 21
First Quarter
Oct 29
Full
Nov 6
Last Quarter

Hourly Weather History & Observations

Time (CDT) Temp. Dew Point Humidity Pressure Visibility Wind Dir Wind Speed Gust Speed Precip Events Conditions
12:15 AM 66.2 °F 60.8 °F 83% 29.72 in 10.0 mi Calm Calm - N/A Rain Light Rain
12:35 AM 66.2 °F 60.8 °F 83% 29.71 in 10.0 mi South 3.5 mph - 0.04 in Rain Rain
12:55 AM 64.4 °F 60.8 °F 88% 29.72 in 7.0 mi South 4.6 mph - 0.11 in Rain Rain
1:15 AM 64.4 °F 60.8 °F 88% 29.72 in 10.0 mi SSW 9.2 mph - 0.02 in Rain Light Rain
1:35 AM 64.4 °F 60.8 °F 88% 29.70 in 10.0 mi South 8.1 mph - 0.06 in Rain Rain
1:55 AM 64.4 °F 59.0 °F 83% 29.69 in 7.0 mi SSE 4.6 mph - 0.08 in Rain Rain
2:35 AM 62.6 °F 59.0 °F 88% 29.64 in 10.0 mi Calm Calm - 0.05 in Rain Light Rain
2:55 AM 62.6 °F 57.2 °F 82% 29.63 in 10.0 mi Calm Calm - 0.05 in   Scattered Clouds
3:15 AM 62.6 °F 57.2 °F 82% 29.61 in 10.0 mi SSE 4.6 mph - N/A   Mostly Cloudy
3:35 AM 62.6 °F 57.2 °F 82% 29.56 in 7.0 mi ESE 8.1 mph - N/A   Scattered Clouds
3:55 AM 62.6 °F 57.2 °F 82% 29.60 in 10.0 mi South 6.9 mph - N/A   Mostly Cloudy
4:15 AM 62.6 °F 57.2 °F 82% 29.58 in 10.0 mi SSE 4.6 mph - 0.01 in   Mostly Cloudy
4:35 AM 62.6 °F 57.2 °F 82% 29.58 in 7.0 mi SSE 5.8 mph - 0.01 in   Scattered Clouds
4:55 AM 62.6 °F 57.2 °F 82% 29.57 in 7.0 mi SSE 3.5 mph - 0.01 in   Mostly Cloudy
5:15 AM 62.6 °F 57.2 °F 82% 29.56 in 7.0 mi SSE 4.6 mph - N/A   Overcast
5:35 AM 62.6 °F 57.2 °F 82% 29.56 in 7.0 mi South 8.1 mph - N/A   Overcast
5:55 AM 62.6 °F 57.2 °F 82% 29.55 in 3.0 mi SSE 8.1 mph - 0.02 in Rain Rain
6:15 AM 62.6 °F 57.2 °F 82% 29.55 in 5.0 mi SSE 5.8 mph - 0.01 in Rain Light Rain
6:35 AM 62.6 °F 57.2 °F 82% 29.54 in 7.0 mi SE 3.5 mph - 0.02 in Rain Light Rain
6:55 AM 62.6 °F 57.2 °F 82% 29.54 in 7.0 mi SSE 4.6 mph - 0.02 in Rain Rain
7:15 AM 62.6 °F 57.2 °F 82% 29.52 in 5.0 mi SSE 9.2 mph - 0.10 in Rain Heavy Rain
7:35 AM 62.6 °F 57.2 °F 82% 29.51 in 10.0 mi SE 8.1 mph - 0.11 in   Overcast
7:55 AM 62.6 °F 57.2 °F 82% 29.50 in 5.0 mi SSE 11.5 mph - 0.22 in Rain Heavy Rain
8:15 AM 62.6 °F 59.0 °F 88% 29.51 in 7.0 mi South 13.8 mph 19.6 mph 0.02 in Rain Rain
8:35 AM 62.6 °F 59.0 °F 88% 29.50 in 7.0 mi South 11.5 mph 21.9 mph 0.08 in Rain Rain
8:55 AM 62.6 °F 59.0 °F 88% 29.51 in 10.0 mi South 11.5 mph - 0.08 in   Overcast
9:15 AM 64.4 °F 59.0 °F 83% 29.50 in 10.0 mi SSW 12.7 mph - 0.01 in   Mostly Cloudy
9:35 AM 62.6 °F 59.0 °F 88% 29.49 in 7.0 mi SW 9.2 mph - 0.03 in Rain Light Rain
9:55 AM 62.6 °F 57.2 °F 82% 29.50 in 10.0 mi South 8.1 mph - 0.04 in Rain Light Rain
10:15 AM 62.6 °F 57.2 °F 82% 29.49 in 10.0 mi SW 11.5 mph - N/A Rain Light Rain
10:35 AM 62.6 °F 57.2 °F 82% 29.49 in 10.0 mi SSW 12.7 mph 21.9 mph N/A   Mostly Cloudy
10:55 AM 62.6 °F 57.2 °F 82% 29.48 in 10.0 mi SW 18.4 mph 24.2 mph 0.01 in Rain Light Rain
11:15 AM 62.6 °F 57.2 °F 82% 29.46 in 10.0 mi WSW 21.9 mph 28.8 mph N/A Rain Light Rain
11:35 AM 60.8 °F 57.2 °F 88% 29.46 in 5.0 mi West 29.9 mph 36.8 mph 0.01 in Rain Rain
11:55 AM 57.2 °F 53.6 °F 88% 29.48 in 3.0 mi West 24.2 mph 34.5 mph 0.04 in Rain Light Rain
12:15 PM 57.2 °F 51.8 °F 82% 29.49 in 7.0 mi WNW 28.8 mph 39.1 mph 0.03 in Rain Rain
12:35 PM 57.2 °F 51.8 °F 82% 29.51 in 7.0 mi West 32.2 mph 40.3 mph 0.05 in Rain Rain
12:55 PM 55.4 °F 51.8 °F 88% 29.54 in 7.0 mi WNW 29.9 mph 42.6 mph 0.06 in   Drizzle
1:15 PM 55.4 °F 51.8 °F 88% 29.56 in 10.0 mi WNW 26.5 mph 36.8 mph N/A   Overcast
1:35 PM 55.4 °F 50.0 °F 82% 29.58 in 10.0 mi WNW 29.9 mph 38.0 mph N/A   Overcast
1:55 PM 53.6 °F 48.2 °F 82% 29.60 in 10.0 mi WNW 32.2 mph 41.4 mph N/A   Overcast
2:15 PM 55.4 °F 50.0 °F 82% 29.62 in 10.0 mi WNW 25.3 mph 33.4 mph N/A   Overcast
2:35 PM 55.4 °F 50.0 °F 82% 29.64 in 10.0 mi WNW 25.3 mph 35.7 mph N/A   Overcast
2:55 PM 55.4 °F 48.2 °F 77% 29.66 in 10.0 mi NW 28.8 mph 38.0 mph N/A   Overcast
3:15 PM 53.6 °F 48.2 °F 82% 29.68 in 10.0 mi WNW 24.2 mph 33.4 mph N/A   Overcast
3:35 PM 53.6 °F 48.2 °F 82% 29.69 in 10.0 mi WNW 23.0 mph 28.8 mph N/A   Overcast
3:55 PM 55.4 °F 48.2 °F 77% 29.71 in 10.0 mi WNW 24.2 mph 31.1 mph N/A   Overcast
4:15 PM 53.6 °F 48.2 °F 82% 29.73 in 10.0 mi WNW 23.0 mph 28.8 mph N/A   Overcast
4:35 PM 53.6 °F 46.4 °F 77% 29.74 in 10.0 mi WNW 20.7 mph 32.2 mph N/A   Overcast
4:55 PM 53.6 °F 46.4 °F 77% 29.76 in 10.0 mi WNW 24.2 mph 32.2 mph N/A   Overcast
5:15 PM 53.6 °F 46.4 °F 77% 29.78 in 10.0 mi WNW 20.7 mph 27.6 mph N/A   Overcast
5:35 PM 53.6 °F 46.4 °F 77% 29.80 in 10.0 mi WNW 18.4 mph - N/A   Overcast
5:55 PM 53.6 °F 46.4 °F 77% 29.80 in 10.0 mi WNW 12.7 mph - N/A   Overcast
6:15 PM 53.6 °F 46.4 °F 77% 29.81 in 10.0 mi WNW 10.4 mph - N/A   Overcast
6:35 PM 53.6 °F 46.4 °F 77% 29.82 in 10.0 mi WNW 10.4 mph - N/A   Overcast
6:55 PM 53.6 °F 46.4 °F 77% 29.82 in 10.0 mi WNW 9.2 mph - N/A   Overcast
7:15 PM 53.6 °F 46.4 °F 77% 29.83 in 10.0 mi WNW 8.1 mph - N/A   Overcast
7:35 PM 53.6 °F 46.4 °F 77% 29.84 in 10.0 mi NW 6.9 mph - N/A   Overcast
7:55 PM 53.6 °F 46.4 °F 77% 29.85 in 10.0 mi NW 5.8 mph - N/A   Overcast
8:15 PM 53.6 °F 46.4 °F 77% 29.85 in 10.0 mi NW 5.8 mph - N/A   Mostly Cloudy
8:35 PM 51.8 °F 44.6 °F 76% 29.86 in 10.0 mi NW 4.6 mph - N/A   Mostly Cloudy
8:55 PM 51.8 °F 44.6 °F 76% 29.86 in 10.0 mi NW 3.5 mph - N/A   Mostly Cloudy
9:15 PM 51.8 °F 44.6 °F 76% 29.87 in 10.0 mi Calm Calm - N/A   Scattered Clouds
9:35 PM 50.0 °F 44.6 °F 82% 29.87 in 10.0 mi Calm Calm - N/A   Clear
9:55 PM 48.2 °F 42.8 °F 82% 29.88 in 10.0 mi Calm Calm - N/A   Clear
10:15 PM 48.2 °F 42.8 °F 82% 29.88 in 10.0 mi Calm Calm - N/A   Clear
10:35 PM 46.4 °F 42.8 °F 87% 29.89 in 7.0 mi Calm Calm - N/A   Clear
10:55 PM 46.4 °F 41.0 °F 81% 29.89 in 7.0 mi Calm Calm - N/A   Clear
11:15 PM 46.4 °F 41.0 °F 81% 29.89 in 7.0 mi Calm Calm - N/A   Clear
11:35 PM 46.4 °F 42.8 °F 87% 29.89 in 5.0 mi Calm Calm - N/A   Clear
11:55 PM 44.6 °F 39.2 °F 81% 29.90 in 3.0 mi Calm Calm - N/A   Haze